TimePST,TemperatureF,Dew PointF,Humidity,Sea Level PressureIn,VisibilityMPH,Wind Direction,Wind SpeedMPH,Gust SpeedMPH,PrecipitationIn,Events,Conditions,WindDirDegrees,DateUTC
12:15 AM,46.4,46.4,100,30.15,2.5,SSW,11.5,16.1,0.01,,Heavy Drizzle,210,2014-01-03 08:15:00
12:35 AM,46.4,46.4,100,30.16,1.8,WSW,6.9,17.3,0.03,,Heavy Drizzle,250,2014-01-03 08:35:00
12:55 AM,46.4,46.4,100,30.16,2.5,WSW,5.8,18.4,0.04,,Heavy Drizzle,250,2014-01-03 08:55:00
1:15 AM,46.4,46.4,100,-9999,5.0,North,6.9,-,N/A,Rain,Rain,360,2014-01-03 09:15:00
1:35 AM,46.4,46.4,100,30.16,5.0,Calm,Calm,-,N/A,,Drizzle,0,2014-01-03 09:35:00
1:55 AM,46.4,46.4,100,30.17,3.0,NW,5.8,-,N/A,,Overcast,320,2014-01-03 09:55:00
2:15 AM,46.4,44.6,93,30.18,5.0,NNW,6.9,-,N/A,,Overcast,340,2014-01-03 10:15:00
2:35 AM,46.4,44.6,93,30.19,7.0,North,3.5,-,N/A,,Overcast,360,2014-01-03 10:35:00
2:55 AM,46.4,44.6,93,30.19,7.0,North,3.5,-,N/A,,Overcast,360,2014-01-03 10:55:00
3:15 AM,46.4,44.6,93,30.21,5.0,North,3.5,-,N/A,,Overcast,360,2014-01-03 11:15:00
3:35 AM,44.6,44.6,100,30.22,5.0,North,5.8,-,N/A,,Overcast,10,2014-01-03 11:35:00
3:55 AM,44.6,44.6,100,30.22,5.0,North,6.9,-,N/A,,Overcast,350,2014-01-03 11:55:00
4:15 AM,44.6,42.8,93,30.22,10.0,North,5.8,-,N/A,,Scattered Clouds,360,2014-01-03 12:15:00
4:35 AM,42.8,42.8,100,30.22,10.0,Calm,Calm,-,N/A,,Clear,0,2014-01-03 12:35:00
4:55 AM,42.8,41.0,93,30.22,10.0,Calm,Calm,-,N/A,,Clear,0,2014-01-03 12:55:00
5:15 AM,41.0,41.0,100,30.22,10.0,North,4.6,-,N/A,,Clear,10,2014-01-03 13:15:00
5:35 AM,41.0,39.2,93,30.22,10.0,NNE,3.5,-,N/A,,Clear,30,2014-01-03 13:35:00
5:55 AM,41.0,37.4,87,30.22,10.0,North,5.8,-,N/A,,Clear,360,2014-01-03 13:55:00
6:15 AM,41.0,37.4,87,30.23,10.0,NNE,4.6,-,N/A,,Clear,20,2014-01-03 14:15:00
6:35 AM,41.0,37.4,87,30.23,10.0,NNE,3.5,-,N/A,,Clear,30,2014-01-03 14:35:00
6:55 AM,39.2,37.4,93,30.23,10.0,North,5.8,-,N/A,,Clear,360,2014-01-03 14:55:00
7:15 AM,41.0,37.4,87,30.24,10.0,NE,4.6,-,N/A,,Clear,50,2014-01-03 15:15:00
7:35 AM,37.4,35.6,93,30.25,10.0,NE,4.6,-,N/A,,Clear,40,2014-01-03 15:35:00
7:55 AM,37.4,35.6,93,30.24,10.0,NNE,5.8,-,N/A,,Clear,30,2014-01-03 15:55:00
8:15 AM,37.4,35.6,93,30.25,10.0,NNE,4.6,-,N/A,,Clear,30,2014-01-03 16:15:00
8:35 AM,37.4,35.6,93,30.26,10.0,ENE,3.5,-,N/A,,Clear,60,2014-01-03 16:35:00
8:55 AM,37.4,35.6,93,30.27,10.0,NE,3.5,-,N/A,,Clear,40,2014-01-03 16:55:00
9:15 AM,41.0,37.4,87,30.28,10.0,NNE,5.8,-,N/A,,Clear,30,2014-01-03 17:15:00
9:35 AM,41.0,37.4,87,30.28,10.0,NNE,6.9,-,N/A,,Clear,20,2014-01-03 17:35:00
9:55 AM,42.8,37.4,81,30.28,10.0,ENE,4.6,-,N/A,,Clear,60,2014-01-03 17:55:00
10:15 AM,42.8,39.2,87,30.29,10.0,NE,6.9,-,N/A,,Clear,40,2014-01-03 18:15:00
10:35 AM,42.8,39.2,87,30.29,10.0,NE,5.8,-,N/A,,Clear,50,2014-01-03 18:35:00
10:55 AM,44.6,39.2,81,30.29,10.0,ENE,5.8,-,N/A,,Clear,70,2014-01-03 18:55:00
11:15 AM,44.6,39.2,81,30.29,10.0,NE,6.9,-,N/A,,Scattered Clouds,50,2014-01-03 19:15:00
11:35 AM,44.6,41.0,87,30.29,10.0,ENE,5.8,-,N/A,,Mostly Cloudy,60,2014-01-03 19:35:00
11:55 AM,44.6,39.2,81,30.30,10.0,Calm,Calm,-,N/A,,Overcast,0,2014-01-03 19:55:00
12:15 PM,44.6,39.2,81,30.29,10.0,North,5.8,-,N/A,,Overcast,360,2014-01-03 20:15:00
12:35 PM,44.6,39.2,81,30.29,10.0,North,5.8,-,N/A,,Mostly Cloudy,360,2014-01-03 20:35:00
12:55 PM,46.4,37.4,71,30.28,10.0,NNE,8.1,-,N/A,,Scattered Clouds,30,2014-01-03 20:55:00
1:15 PM,46.4,39.2,76,30.28,10.0,ENE,5.8,-,N/A,,Scattered Clouds,70,2014-01-03 21:15:00
1:35 PM,46.4,37.4,71,30.28,10.0,Calm,Calm,-,N/A,,Scattered Clouds,0,2014-01-03 21:35:00
1:55 PM,46.4,37.4,71,30.27,7.0,North,5.8,-,N/A,,Scattered Clouds,10,2014-01-03 21:55:00
2:15 PM,46.4,39.2,76,30.27,7.0,North,5.8,-,N/A,,Scattered Clouds,350,2014-01-03 22:15:00
2:35 PM,46.4,37.4,71,30.27,5.0,NNW,10.4,-,N/A,,Haze,340,2014-01-03 22:35:00
2:55 PM,46.4,35.6,66,30.28,7.0,North,10.4,17.3,N/A,,Clear,360,2014-01-03 22:55:00
3:15 PM,46.4,35.6,66,30.28,10.0,North,10.4,-,N/A,,Clear,360,2014-01-03 23:15:00
3:35 PM,46.4,35.6,66,30.28,10.0,North,11.5,16.1,N/A,,Clear,350,2014-01-03 23:35:00
3:55 PM,44.6,35.6,71,30.28,10.0,North,10.4,17.3,N/A,,Clear,360,2014-01-03 23:55:00
4:15 PM,44.6,35.6,71,30.29,10.0,North,8.1,-,N/A,,Clear,10,2014-01-04 00:15:00
4:35 PM,42.8,35.6,76,30.29,10.0,North,6.9,-,N/A,,Clear,360,2014-01-04 00:35:00
4:55 PM,42.8,33.8,70,30.29,10.0,NNE,4.6,-,N/A,,Clear,30,2014-01-04 00:55:00
5:15 PM,41.0,33.8,76,30.29,10.0,NNE,6.9,-,N/A,,Clear,20,2014-01-04 01:15:00
5:35 PM,41.0,33.8,76,30.29,10.0,NNE,4.6,-,N/A,,Clear,20,2014-01-04 01:35:00
5:55 PM,37.4,33.8,87,30.29,10.0,NNE,4.6,-,N/A,,Clear,30,2014-01-04 01:55:00
6:15 PM,39.2,33.8,81,30.29,10.0,NNE,5.8,-,N/A,,Clear,30,2014-01-04 02:15:00
6:35 PM,41.0,33.8,76,30.30,10.0,NNE,5.8,-,N/A,,Clear,30,2014-01-04 02:35:00
6:55 PM,37.4,33.8,87,30.30,10.0,ENE,5.8,-,N/A,,Clear,60,2014-01-04 02:55:00
7:15 PM,35.6,33.8,93,30.30,10.0,NE,5.8,-,N/A,,Clear,50,2014-01-04 03:15:00
7:35 PM,35.6,32.0,87,30.31,10.0,ENE,4.6,-,N/A,,Clear,60,2014-01-04 03:35:00
7:55 PM,35.6,33.8,93,30.31,10.0,ENE,4.6,-,N/A,,Clear,60,2014-01-04 03:55:00
8:15 PM,33.8,33.8,100,30.32,10.0,East,6.9,-,N/A,,Clear,80,2014-01-04 04:15:00
8:35 PM,33.8,32.0,93,30.32,10.0,East,4.6,-,N/A,,Clear,80,2014-01-04 04:35:00
8:55 PM,33.8,33.8,100,30.32,10.0,East,4.6,-,N/A,,Clear,80,2014-01-04 04:55:00
9:15 PM,33.8,33.8,100,30.33,10.0,Calm,Calm,-,N/A,,Clear,0,2014-01-04 05:15:00
9:35 PM,33.8,33.8,100,30.32,10.0,ENE,5.8,-,N/A,,Clear,70,2014-01-04 05:35:00
9:55 PM,33.8,33.8,100,30.32,10.0,East,8.1,-,N/A,,Clear,80,2014-01-04 05:55:00
10:15 PM,33.8,33.8,100,30.32,10.0,East,6.9,-,N/A,,Clear,80,2014-01-04 06:15:00
10:35 PM,33.8,32.0,93,30.32,10.0,East,5.8,-,N/A,,Clear,90,2014-01-04 06:35:00
10:55 PM,33.8,32.0,93,30.32,3.0,East,10.4,-,N/A,,Clear,80,2014-01-04 06:55:00
11:15 PM,32.0,32.0,100,30.33,4.0,East,8.1,-,N/A,,Clear,90,2014-01-04 07:15:00
11:35 PM,32.0,32.0,100,30.34,2.0,East,9.2,-,N/A,,Clear,80,2014-01-04 07:35:00
11:55 PM,32.0,32.0,100,30.34,5.0,East,9.2,-,N/A,,Clear,80,2014-01-04 07:55:00